Regional Weather Roundup
Issued by NWS

Home | Current Version | Previous Version | Text Only | Print | Product List | Glossary On
Versions: 1 2 3 4 5 6 7 8 9 10 11 12 13 14 15 16 17 18 19 20 21 22 23 24 25 26 27
000
ASUS45 KCYS 260610
RWRWY

WYOMING REGIONAL WEATHER ROUNDUP
NATIONAL WEATHER SERVICE CHEYENNE WY
1200 AM MDT SUN MAR 26 2017

NOTE:  "FAIR" INDICATES FEW OR NO CLOUDS BELOW 12,000 FEET
WITH NO SIGNIFICANT WEATHER AND/OR OBSTRUCTIONS TO VISIBILITY.

WYZ001-260700-
YELLOWSTONE NATIONAL PARK

CITY           SKY/WX    TMP DP  RH WIND       PRES   REMARKS
LK YELLOWSTONE   N/A     21  20  96 CALM      30.00S
6HR MIN TEMP:  21; 6HR MAX TEMP:  35;

W YELLOWSTONE  NOT AVBL

$$
WYZ002>013-054>058-071-098>099-260700-
NORTHERN WYOMING

CITY           SKY/WX    TMP DP  RH WIND       PRES   REMARKS
JACKSON        FAIR      30  27  86 CALM      29.98S
CODY           FAIR      38  32  79 SW5       29.95S WCI  34
GREYBULL       CLOUDY    43  37  79 CALM      29.91S
6HR MIN TEMP:  43; 6HR MAX TEMP:  46; 6HR PCP:  0.03;

WORLAND        CLOUDY    42  40  92 SW3       29.92S
6HR MIN TEMP:  42; 6HR MAX TEMP:  48; 6HR PCP:  0.02;

SHERIDAN       LGT RAIN  38  36  92 S5        29.96R WCI  34
6HR MIN TEMP:  38; 6HR MAX TEMP:  45; 6HR PCP:  0.28;

BUFFALO        LGT RAIN  37  33  85 NW12      29.94S WCI  29
6HR MIN TEMP:  37; 6HR MAX TEMP:  45; 6HR PCP:  0.21;

GILLETTE       CLOUDY    42  36  79 N12       29.90F
6HR MIN TEMP:  42; 6HR MAX TEMP:  52;

HULETT         CLOUDY    45  34  65 N6        29.89R
NEWCASTLE      FAIR      50  32  50 N6        29.82F

$$
WYZ014>020-022>026-101>103-260700-
CENTRAL WYOMING

CITY           SKY/WX    TMP DP  RH WIND       PRES   REMARKS
BIG PINEY      FAIR      30  24  78 N15       29.97S WCI  19
6HR MIN TEMP:  30; 6HR MAX TEMP:  37; 6HR PCP:  0.01;

PINEDALE       FAIR      32  27  80 W16       29.95S WCI  21
DUBOIS         FAIR      32  23  69 W20       29.93S WCI  20
LANDER         LGT RAIN  39  37  92 NW7       29.91S WCI  34
6HR MIN TEMP:  39; 6HR MAX TEMP:  50; 6HR PCP:  0.03;

RIVERTON       LGT RAIN  37  35  92 N12       29.91R WCI  29
6HR MIN TEMP:  37; 6HR MAX TEMP:  49; 6HR PCP:  0.02;

CASPER         LGT RAIN  41  40  96 NE6       29.89S
6HR MIN TEMP:  41; 6HR MAX TEMP:  55; 6HR PCP:  0.02;

DOUGLAS        FAIR      46  35  65 N12       29.85R
6HR MIN TEMP:  46; 6HR MAX TEMP:  59;


$$
WYZ021-027>030-104>119-260700-
SOUTHERN WYOMING

CITY           SKY/WX    TMP DP  RH WIND       PRES   REMARKS
EVANSTON       FAIR      32  28  85 NW3       30.02R
6HR MIN TEMP:  32; 6HR MAX TEMP:  35; 6HR PCP: TRACE;

KEMMERER         N/A     32  27  80 NW13G18   30.00S WCI  22
FORT BRIDGER   CLOUDY    34  32  93 W13       30.02S WCI  25
ROCK SPRINGS   CLOUDY    37  33  85 NW9       29.94R WCI  30
6HR MIN TEMP:  37; 6HR MAX TEMP:  43; 6HR PCP:  0.04;

DIXON          RAIN      40  37  87 W5        29.94F
RAWLINS        CLOUDY    41  34  76 SW9       29.90S
6HR MIN TEMP:  41; 6HR MAX TEMP:  52;

SARATOGA       CLOUDY    37  37 100 S8        29.90F WCI  31
LARAMIE        LGT RAIN  43  29  57 N9        29.88R
6HR MIN TEMP:  43; 6HR MAX TEMP:  51; 6HR PCP: TRACE;

CHEYENNE       CLOUDY    45  29  53 S7        29.85S
6HR MIN TEMP:  45; 6HR MAX TEMP:  54;

TORRINGTON     FAIR      50  30  46 SE5       29.80S
6HR MIN TEMP:  50; 6HR MAX TEMP:  63;

PINE BLUFFS    MOCLDY    43  30  61 S7        29.84S

$$




USA.gov is the U.S. government's official web portal to all federal, state and local government web resources and services.